Helicity
36 51 64 76 95 103 101 83 68 70 58 67 86 98 101 97 115 127 117 128 130 132 135 126 120 121 124 115 113 112 108 109 108 109 108 119 72 65
37 53 68 85 97 110 111 107 107 96 84 88 84 64 66 71 66 90 99 114 133 129 119 103 109 114 110 123 130 146 154 115 80 88 85 109 133 44
41 62 80 102 97 93 105 103 101 109 113 102 67 74 69 61 57 36 71 95 111 156 139 110 110 111 120 121 128 131 150 197 184 103 73 82 83 64
65 92 89 92 84 88 91 87 90 97 104 72 54 55 41 28 35 63 71 74 79 120 152 135 145 118 95 118 117 109 124 154 239 287 293 197 161 81
59 71 77 87 93 94 82 80 84 74 72 70 69 45 13 24 41 59 61 61 60 93 113 140 130 82 71 134 144 138 162 189 195 236 282 286 306 290
59 73 72 62 53 50 66 59 52 39 41 39 31 36 46 45 49 53 59 55 63 70 96 114 79 90 99 89 118 155 152 165 193 183 233 224 299 419
42 66 17 58 85 84 38 25 17 25 36 44 41 42 46 43 42 36 44 45 61 65 44 39 31 34 61 79 82 99 104 129 155 161 167 185 259 305
29 33 17 57 70 68 75 63 55 46 47 42 43 47 41 40 40 52 58 56 59 65 52 45 39 43 50 62 95 91 111 125 134 125 104 114 164 218
33 38 36 50 65 52 54 69 115 118 102 65 80 71 59 61 32 50 54 43 44 47 24 33 29 33 34 45 81 79 86 93 99 104 107 98 89 100
50 51 62 67 48 29 34 50 62 86 79 58 60 58 49 38 34 21 14 18 12 44 29 26 35 30 30 44 83 67 66 69 75 81 83 76 70 60
77 92 88 67 65 38 38 44 49 45 45 73 75 77 97 109 73 10 34 26 28 35 74 24 40 33 49 62 77 103 112 113 113 110 103 94 80 72
97 110 108 101 60 35 36 29 48 32 38 59 61 91 96 96 118 63 30 7 7 29 52 51 63 73 81 89 95 115 90 139 132 149 140 129 118 62
108 114 108 103 63 51 41 30 26 24 51 55 64 73 79 80 72 62 62 32 13 36 71 68 91 93 107 103 95 111 107 104 105 118 149 138 128 109
123 124 128 101 70 74 65 69 68 63 56 63 67 72 65 54 37 33 50 63 67 66 95 109 101 108 110 88 71 78 70 90 89 84 81 91 101 115
103 130 133 105 96 102 103 102 96 72 63 65 61 48 33 14 27 34 52 68 77 97 109 100 76 48 49 44 47 45 57 69 80 61 69 83 88 93
134 112 102 90 90 78 77 88 77 63 65 58 50 34 30 31 55 54 54 49 67 105 96 66 36 28 30 38 45 45 55 67 85 89 80 91 105 110
113 90 76 65 56 53 59 59 65 73 77 78 69 58 47 54 63 71 69 70 73 90 75 83 76 18 21 36 42 48 70 79 98 101 89 79 112 132
95 74 62 54 54 56 61 67 73 82 73 70 76 86 79 81 74 77 73 76 83 57 47 43 59 58 42 24 36 56 77 100 107 112 117 114 110 132
60 54 58 59 63 71 75 77 82 86 89 97 107 113 114 110 106 93 77 71 76 39 25 18 28 35 55 75 41 38 92 116 112 106 131 149 151 157
54 69 80 79 77 85 84 95 98 98 109 127 138 136 132 114 106 87 69 46 34 24 48 30 50 44 58 75 103 162 74 102 127 128 134 117 124 74
63 82 83 86 95 107 113 104 110 117 124 129 130 123 109 100 82 62 55 56 28 18 41 47 45 8 61 74 72 78 122 84 61 111 141 115 92 128
67 75 101 109 117 115 114 116 121 130 113 110 95 89 82 82 75 61 36 8 0 11 25 44 39 33 53 57 60 77 85 92 72 59 59 74 159 172
85 110 134 137 124 126 118 115 111 103 87 84 79 69 59 59 35 -5 -35 -16 8 23 24 31 39 65 76 67 52 96 110 94 94 71 120 48 68 61
Wind_Speed
65 64 62 60 58 58 57 60 66 76 75 62 57 49 50 59 57 55 54 55 56 59 61 63 63 66 69 71 72 73 74 75 76 75 76 79 79 77
63 63 61 58 56 55 56 57 58 65 73 61 59 59 64 60 54 53 54 55 56 58 60 57 60 61 62 64 66 68 71 75 75 75 76 77 80 74
62 62 59 54 55 52 51 53 58 58 67 64 56 54 56 53 53 51 50 50 50 55 54 54 54 55 58 60 62 64 66 69 73 74 73 77 82 85
63 58 55 52 53 49 50 51 52 51 56 63 55 54 52 47 49 47 46 45 46 48 48 49 48 51 56 58 60 62 64 65 67 70 69 70 78 73
56 54 53 50 50 51 53 53 53 55 55 54 55 50 49 47 46 44 44 43 42 45 45 47 49 52 54 56 58 61 62 62 62 64 62 60 64 61
52 49 48 46 46 49 49 52 52 53 51 51 51 49 44 43 42 44 43 44 45 45 45 48 49 50 53 55 58 59 58 59 58 56 57 54 53 51
46 44 43 40 43 44 47 48 49 48 48 47 45 43 43 43 45 44 44 42 42 46 45 50 51 51 53 54 56 56 54 55 54 53 51 51 50 47
42 40 38 38 39 41 40 43 44 41 39 38 39 39 42 42 43 43 44 43 44 49 47 49 49 49 49 51 52 54 54 53 53 52 51 50 50 51
40 35 35 36 38 37 37 37 38 38 36 34 34 37 39 43 40 41 41 40 41 47 42 43 46 46 48 50 53 52 52 52 52 51 51 50 49 49
34 34 34 36 36 32 31 33 34 36 36 36 36 38 40 41 39 37 35 35 36 45 43 42 47 46 47 49 52 50 50 51 52 52 51 51 51 50
33 33 32 34 32 29 29 30 32 34 36 37 38 40 42 45 43 36 40 38 40 44 51 42 48 47 45 48 51 51 52 52 53 54 55 55 55 55
30 30 29 31 29 28 28 30 32 35 35 37 39 42 44 45 47 45 44 41 41 42 51 46 51 51 46 45 52 54 53 55 55 59 60 61 63 64
25 26 27 29 29 30 31 32 33 33 35 37 40 43 45 47 47 47 47 45 43 46 53 47 54 52 50 53 50 54 58 57 57 62 65 67 69 70
23 24 26 28 30 32 33 34 34 35 37 40 43 46 48 49 48 47 46 46 46 47 53 53 51 55 56 54 52 53 61 54 57 66 68 69 70 71
22 23 25 28 31 34 35 36 37 39 41 43 44 46 48 51 50 47 45 46 48 52 55 56 53 50 47 48 51 54 58 57 58 69 69 69 70 70
22 24 26 29 33 34 37 39 41 42 43 43 44 46 48 50 51 50 50 47 50 55 55 55 52 47 47 46 48 51 55 57 62 67 67 66 65 63
21 25 29 33 36 37 38 40 41 43 45 46 47 48 48 47 48 49 48 49 51 56 57 57 56 47 43 45 47 50 57 59 64 66 64 65 64 62
26 29 32 34 37 36 38 39 42 44 46 48 47 47 46 45 46 48 49 51 53 54 55 55 58 54 50 46 41 51 57 62 67 61 57 60 62 65
29 31 31 35 34 35 37 39 41 45 45 46 46 44 44 45 47 51 53 52 54 52 53 51 55 54 59 61 49 41 56 62 59 59 54 54 56 59
31 26 31 31 32 34 36 38 40 43 44 44 43 44 45 47 50 54 55 54 53 53 53 51 54 53 55 53 51 50 50 53 54 55 52 53 50 47
28 30 28 29 31 32 34 37 39 40 40 40 39 42 45 47 51 52 54 53 52 51 53 54 55 54 51 47 55 55 57 54 48 49 48 52 53 52
30 25 26 28 28 30 33 35 37 37 35 35 38 40 42 43 43 43 47 50 49 50 50 55 59 58 51 53 62 61 58 57 52 49 44 37 42 51
26 23 24 25 27 30 32 32 33 29 29 32 35 37 38 38 28 17 16 43 49 52 55 59 60 55 53 54 58 60 57 60 58 60 53 43 39 34
Wind_Direction
316 315 312 312 311 311 310 310 307 305 305 310 311 314 313 313 314 315 314 315 315 315 316 316 317 316 315 313 312 309 306 305 305 304 303 300 291 284
317 316 315 314 314 314 312 310 308 305 303 306 305 306 307 310 315 315 315 314 315 316 316 320 321 321 323 323 321 318 315 309 306 305 304 302 300 287
320 318 317 319 318 317 316 313 308 307 302 306 308 308 308 310 314 319 319 317 318 320 323 323 325 327 327 327 328 328 326 323 317 311 309 305 301 295
320 322 322 323 322 321 319 316 311 310 307 305 309 308 308 313 315 319 323 325 326 326 329 333 331 330 330 329 330 332 334 334 331 325 321 317 310 300
327 326 326 326 325 323 320 317 314 310 307 305 305 309 310 313 316 322 325 326 331 331 332 332 332 333 334 336 336 337 337 336 338 340 336 328 325 323
335 336 336 334 330 325 323 319 316 311 309 305 304 308 312 316 322 321 323 326 327 329 335 337 337 336 338 339 339 340 344 344 346 343 342 336 338 332
342 342 341 341 336 335 329 325 320 318 310 306 307 311 313 317 320 320 321 326 333 334 335 335 334 335 338 340 342 342 347 348 350 340 338 338 335 332
347 349 348 344 342 340 340 338 337 328 325 321 317 318 319 321 327 329 327 328 326 333 334 337 342 342 342 344 345 344 343 347 345 334 333 334 334 326
351 353 353 347 345 343 343 343 345 347 348 344 340 333 331 332 336 337 338 337 338 335 343 345 349 351 350 348 347 347 348 348 347 345 340 337 334 330
350 349 349 347 347 351 353 350 349 350 350 354 355 351 347 345 353 357 1 360 357 349 348 348 348 350 351 352 351 352 352 350 348 347 345 341 336 332
342 345 350 349 347 350 355 355 356 353 355 2 1 359 357 355 353 356 348 346 344 344 344 348 346 345 351 352 351 351 351 351 350 347 343 339 335 330
346 350 355 359 1 359 359 356 355 350 355 355 354 354 354 354 356 356 350 349 347 343 343 344 341 342 341 348 348 347 346 344 343 339 335 332 328 324
346 348 351 360 3 2 359 354 352 357 356 356 354 352 350 350 351 352 353 352 347 345 341 345 339 341 340 336 340 343 342 340 340 337 334 330 326 322
351 346 352 360 3 0 356 356 359 358 354 347 345 343 343 342 343 348 352 354 354 351 343 345 342 340 338 339 341 342 338 345 344 339 337 334 330 326
348 352 0 2 3 360 356 355 353 349 346 346 346 343 340 337 340 342 345 348 349 346 345 346 347 347 350 348 346 343 345 347 350 344 343 340 336 332
352 351 355 357 354 352 348 348 350 351 348 346 345 344 344 343 342 343 342 342 343 343 347 350 353 356 355 355 351 351 352 351 351 350 348 346 344 340
351 342 338 338 339 343 346 348 348 347 347 347 346 345 345 346 346 346 346 346 346 342 343 347 353 1 2 357 357 358 355 356 353 354 355 352 349 345
327 330 333 335 338 343 345 345 347 347 347 346 347 347 347 347 345 344 345 343 342 342 344 347 349 354 354 359 3 358 358 356 354 358 1 357 352 348
322 326 333 336 340 343 346 348 348 348 350 350 350 351 351 347 343 339 337 337 337 338 342 346 350 353 347 343 356 8 359 357 359 359 2 359 353 349
321 334 333 340 345 348 348 351 352 352 352 353 355 354 353 349 342 336 331 328 328 330 335 342 346 349 348 352 355 359 4 1 1 359 360 359 355 351
324 327 338 344 347 351 353 353 353 356 358 360 5 3 1 356 350 342 334 327 321 324 328 336 339 343 350 359 354 357 0 3 3 0 359 359 1 1
320 335 344 349 353 356 356 357 358 1 6 12 14 15 14 14 13 8 350 312 314 321 330 330 328 339 353 355 350 355 359 3 5 5 4 2 3 4
325 343 351 357 357 356 357 1 3 12 18 21 22 25 28 34 52 91 213 285 313 327 327 325 332 346 352 354 354 355 359 0 4 4 7 10 8 1